Location: Laterina
(43.5167°N, 11.7167°E)
Time: 16:22:05
(UTC+00:00)

Lacrosse 4 Rocket - Pass Details

Date: 24 September 2020
Orbit: 543 x 615 km, 68.0° (Epoch: 26 October)

Event Time Altitude Azimuth Distance (km) Brightness Sun altitude
Rises 19:49:00 0° 334° (NNW) 2,719 5.7 -29.1°
Reaches altitude 10° 19:51:14 10° 339° (NNW) 1,828 4.6 -29.5°
Enters shadow 19:52:48 22° 346° (NNW) 1,235 3.5 -29.7°
